Вернуться в каталог

THOR ABLESTAR DEB

АктивенPO
NORAD 715·DEBRIS·🇺🇸 United States

Запущен Dec 5, 1963 с Vandenberg Space Force Base

Loading…

Ближайшие Пролёты (ближайшие 24 часа)

TLE

СвежийSource: Space-Track

Эпоха: Sep 14, 2026, 11:28 UTC

1 00715U 63049E   26257.47812292  .00000582  00000-0  59091-3 0  9994
2 00715  89.9043  76.6527 0027292 254.1576 133.9340 13.75735841115669

Отслеживайте THOR ABLESTAR DEB в реальном времени с AllMySat

Download on the App Store